Regional Weather Roundup
Issued by NWS

Home | Current Version | Previous Version | Text Only | Print | Product List | Glossary Off
Versions: 1 2 3 4 5 6 7 8 9 10 11 12 13 14 15 16 17 18 19 20 21 22 23 24 25 26 27 28 29 30 31 32 33 34 35 36 37 38 39 40 41 42 43 44 45 46 47 48 49 50

000
ASUS43 KMPX 301710
RWRMN
WEATHER ROUNDUP FOR MINNESOTA
NATIONAL WEATHER SERVICE TWIN CITIES/CHANHASSEN MN
1200 PM CDT SUN AUG 30 2015


NOTE: "FAIR" INDICATES FEW OR NO CLOUDS BELOW 12,000 FEET WITH NO
SIGNIFICANT WEATHER AND/OR OBSTRUCTIONS TO VISIBILITY. N/A MEANS
CURRENT SKY AND/OR WEATHER CONDITIONS ARE NOT AVAILABLE.

MNZ060>063-068>070-301800-
   Twin Cities Metro

CITY           SKY/WX    TMP DP  RH WIND       PRES   REMARKS
TWIN CITIES    MOSUNNY   72  61  68 S10       30.00F
ST PAUL        SUNNY     72  63  73 S10       30.00F
CRYSTAL        SUNNY     73  61  65 SW9       29.97F
BLAINE         SUNNY     73  64  73 S9        29.98F
LAKEVILLE      MOSUNNY   70  63  78 S7        30.01F
EDEN PRAIRIE   SUNNY     72  63  73 S12       29.99F
SOUTH ST PAUL  SUNNY     71  62  74 S9        30.00S
LAKE ELMO      FAIR      70  63  78 S9        30.02S
$$
MNZ001>005-007-008-013>017-022>024-027-028-301800-
   Northwest Minnesota

CITY           SKY/WX    TMP DP  RH WIND       PRES   REMARKS
BEMIDJI        MOSUNNY   75  65  72 SE12      29.87S
HALLOCK        SUNNY     77  68  73 S17       29.73F
ROSEAU         MOSUNNY   77  70  78 S9        29.78F
WARROAD        MOSUNNY   77  70  78 S7        29.80S
THIEF RVR FALL MOSUNNY  N/A N/A N/A S10G18    29.79F
CROOKSTON      MOSUNNY   77  66  69 S15G22    29.78F
FOSSTON        MOSUNNY   79  63  57 S13       29.84S
DETROIT LAKES  SUNNY     73  64  73 S13       29.88S
MOORHEAD       SUNNY     75  64  69 S18       29.82F
PARK RAPIDS    SUNNY     76  64  66 S12       29.90S
MAHNOMEN       FAIR      77  65  68 S8        29.84F
$$
MNZ006-009>011-018-025>026-301800-
   North Central Minnesota

CITY           SKY/WX    TMP DP  RH WIND       PRES   REMARKS
BAUDETTE       PTSUNNY   75  67  76 S8        29.81F
FLAG ISLAND    PTSUNNY   70  64  83 S12       29.79S
INTL FALLS     MOSUNNY   75  67  76 VRB5      29.85S
WASKISH        PTSUNNY   77  70  78 S7        29.84F
BIG FORK       SUNNY     75  64  69 S8        29.88F
LONGVILLE      SUNNY     72  64  78 SE9       29.91S
GRAND RAPIDS     N/A     72  63  73 S9        29.92S
CRANE LAKE     SUNNY     70  64  83 S5        29.89S
ORR            SUNNY     73  63  68 S5        29.85F
COOK           SUNNY     75  66  73 S6        29.89F
WALKER         FAIR      73  64  73 S7        29.88F
$$
MNZ012-019>021-037-301800-
   Northeast Minnesota

CITY           SKY/WX    TMP DP  RH WIND       PRES   REMARKS
DULUTH         SUNNY     74  63  68 SW10      29.93S
ELY            SUNNY     72  64  78 SW7       29.90S
HIBBING        SUNNY     74  65  73 S6        29.91F
EVELETH        SUNNY     72  63  73 S10       29.92S
DULUTH HARBOR  SUNNY     75  64  69 SW14      29.91F
TWO HARBORS    SUNNY     75  66  73 SW9       29.90S
SILVER BAY     SUNNY     73  64  73 S9        29.89S
GRAND MARAIS     N/A     57  55  93 W5        29.89F
G MARAIS ARPRT MOSUNNY   70  61  73 S7        29.92S
$$
MNZ029>031-032-039>041-046>048-054>057-064-301800-
   West Central Minnesota

CITY           SKY/WX    TMP DP  RH WIND       PRES   REMARKS
FERGUS FALLS   SUNNY     73  64  73 S14       29.87S
WHEATON        SUNNY     73  64  73 SE10      29.87F
MORRIS         SUNNY     75  66  73 S13       29.89F
ALEXANDRIA     SUNNY     73  64  73 S13       29.94S
ELBOW LAKE     FAIR      73  65  78 S14       29.89S
WADENA         SUNNY     73  64  73 S9        29.90S
GLENWOOD       SUNNY     73  64  73 S13       29.94S
APPLETON       SUNNY     75  64  69 SE13      29.90F
BENSON         SUNNY     73  63  68 S10       29.92F
ORTONVILLE     SUNNY     75  64  69 S9        29.89S
MADISON        SUNNY     75  66  73 S8        29.91S
WILLMAR        FAIR      73  64  73 S10       29.96F
$$
MNZ033>034-036-042>043-049>051-058-059-301800-
   Central Minnesota

CITY           SKY/WX    TMP DP  RH WIND       PRES   REMARKS
ST CLOUD       SUNNY     71  62  73 S10       29.96S
SAUK CENTRE    FAIR      72  64  75 S9        29.94F
PAYNESVILLE    SUNNY     72  63  73 SE7       29.96F
AITKIN         MOSUNNY   72  63  73 S8        29.93S
PINE RIVER     SUNNY     72  64  78 SE8       29.95S
BRAINERD       MOSUNNY   70  62  76 S8        29.94S
STAPLES        SUNNY     73  63  68 S10       29.92S
LONG PRAIRIE   FAIR      72  63  73 S10       29.94F
LITTLE FALLS   SUNNY     70  61  73 S9        29.94F
LITCHFIELD     SUNNY     72  66  83 S5        29.97F
BUFFALO        SUNNY     69  60  73 SE7       29.99S
MAPLE LAKE     SUNNY     71  65  81 S6        29.99S
$$
MNZ037-044-045-052-053-301800-
   East Central Minnesota

CITY           SKY/WX    TMP DP  RH WIND       PRES   REMARKS
PRINCETON      SUNNY     72  63  73 SE8       29.97F
MORA           MOSUNNY   70  61  73 SW8       29.98F
CAMBRIDGE      SUNNY     73  61  64 S7        29.96S
RUSH CITY      SUNNY     72  63  72 S8        29.97F
MOOSE LAKE     SUNNY     72  63  73 SW7       29.93S
HINCKLEY       FAIR      72  63  73 S9        29.96F
CLOQUET        SUNNY     73  61  64 S9        29.94S
MCGREGOR       SUNNY     72  63  73 S9        29.94S
$$
MNZ071>073-080-081-089-090-097-098-301800-
   Southwest Minnesota

CITY           SKY/WX    TMP DP  RH WIND       PRES   REMARKS
MONTEVIDEO     SUNNY     75  66  73 SW10      29.95S
GRANITE FALLS  SUNNY     73  65  74 S10       29.96F
CANBY          SUNNY     77  64  63 SE8       29.93S
MARSHALL       SUNNY     73  61  64 S14       29.97S
REDWOOD FALLS  SUNNY     74  64  71 S13       29.96F
OLIVIA         SUNNY     72  63  73 S10       29.96S
PIPESTONE      SUNNY     70  63  78 S9        29.99S
WINDOM         SUNNY     73  63  68 S7        30.00S
WORTHINGTON    SUNNY     70  61  73 S12       30.01F
JACKSON        SUNNY     72  64  78 S9        30.03S
TRACY          SUNNY     73  65  77 S9        29.98S
SLAYTON        SUNNY     70  64  81 S8G16     30.00F
$$
MNZ065>067-074>077-082>085-091>093-301800-
   South Central Minnesota

CITY           SKY/WX    TMP DP  RH WIND       PRES   REMARKS
MANKATO        SUNNY     68  61  77 S9        30.02S
NEW ULM        SUNNY     70  63  78 S10       29.99F
ST JAMES       SUNNY     72  64  78 S12       30.01F
FAIRMONT       SUNNY     70  61  73 S13       30.02F
GLENCOE        SUNNY     72  65  78 S7        29.98F
FARIBAULT      PTSUNNY   70  63  78 S9        30.03F
OWATONNA       MOSUNNY   70  63  78 S9        30.04S
WASECA         CLOUDY    68  61  77 S9        30.05S
ALBERT LEA     CLOUDY    68  63  83 SW6       30.05S
$$
MNZ078>079-086>088-094>096-301800-
   Southeast Minnesota

CITY           SKY/WX    TMP DP  RH WIND       PRES   REMARKS
ROCHESTER      CLOUDY    67  62  84 S12       30.08R
RED WING       PTSUNNY   73  63  68 S9        30.01F
STANTON        MOSUNNY   71  62  73 S7        30.01S
DODGE CENTER   CLOUDY    66  63  88 S8        30.06S
WINONA         CLOUDY    70  63  78 W5        30.06S
AUSTIN         CLOUDY    66  63  88 S9        30.06S
PRESTON        CLOUDY    65  61  85 SW7       30.08S
$$
ABBREVIATIONS USED IN REMARKS
   TC - TEMPERATURES IN CELSIUS
  WCI - WIND CHILL INDEX
   HX - HEAT INDEX
  VSB - VISIBILITY
$$



USA.gov is the U.S. government's official web portal to all federal, state and local government web resources and services.